TimeCDT,TemperatureF,Dew PointF,Humidity,Sea Level PressureIn,VisibilityMPH,Wind Direction,Wind SpeedMPH,Gust SpeedMPH,PrecipitationIn,Events,Conditions,WindDirDegrees,DateUTC
12:56 AM,66.9,59.9,78,29.90,10.0,Calm,Calm,-,N/A,,Clear,0,2013-06-11 05:56:00
1:56 AM,63.0,59.9,90,29.91,9.0,SW,4.6,-,N/A,,Clear,220,2013-06-11 06:56:00
2:56 AM,63.0,59.9,90,29.93,9.0,West,5.8,-,N/A,,Clear,260,2013-06-11 07:56:00
3:56 AM,63.0,59.0,87,29.94,10.0,West,5.8,-,N/A,,Clear,270,2013-06-11 08:56:00
4:56 AM,59.9,56.8,90,29.93,10.0,SW,3.5,-,N/A,,Clear,220,2013-06-11 09:56:00
5:56 AM,61.0,59.0,93,29.94,6.0,SW,3.5,-,N/A,,Clear,230,2013-06-11 10:56:00
6:56 AM,64.9,61.0,87,29.95,8.0,SW,4.6,-,N/A,,Clear,230,2013-06-11 11:56:00
7:56 AM,70.0,61.9,75,29.93,10.0,Calm,Calm,-,N/A,,Clear,0,2013-06-11 12:56:00
8:56 AM,73.9,63.0,68,29.92,10.0,SSE,5.8,-,N/A,,Clear,150,2013-06-11 13:56:00
9:56 AM,77.0,63.0,62,29.93,10.0,SSW,11.5,-,N/A,,Clear,200,2013-06-11 14:56:00
10:56 AM,77.0,61.9,59,29.92,10.0,SW,9.2,-,N/A,,Partly Cloudy,220,2013-06-11 15:56:00
11:56 AM,81.0,61.9,52,29.90,10.0,South,11.5,-,N/A,,Clear,180,2013-06-11 16:56:00
12:56 PM,84.9,63.0,48,29.87,10.0,South,9.2,-,N/A,,Partly Cloudy,190,2013-06-11 17:56:00
1:56 PM,81.9,63.9,54,29.90,10.0,SSW,15.0,-,N/A,Thunderstorm,Partly Cloudy,200,2013-06-11 18:56:00
2:23 PM,78.8,66.2,65,29.91,10.0,SSW,15.0,-,0.00,Rain,Light Rain,210,2013-06-11 19:23:00
2:56 PM,79.9,66.9,64,29.84,10.0,South,15.0,-,0.00,,Clear,180,2013-06-11 19:56:00
3:56 PM,81.9,68.9,65,29.82,10.0,South,16.1,-,N/A,,Partly Cloudy,190,2013-06-11 20:56:00
4:56 PM,84.9,70.0,61,29.86,10.0,SW,12.7,-,N/A,,Clear,220,2013-06-11 21:56:00
5:56 PM,84.9,70.9,63,29.84,10.0,South,9.2,-,N/A,,Clear,180,2013-06-11 22:56:00
6:56 PM,84.9,72.0,65,29.82,10.0,SSW,8.1,-,0.00,,Clear,210,2013-06-11 23:56:00
7:56 PM,83.8,68.9,61,29.82,10.0,WSW,5.8,-,N/A,,Clear,250,2013-06-12 00:56:00
8:56 PM,81.9,68.0,63,29.81,10.0,SW,6.9,-,N/A,,Clear,230,2013-06-12 01:56:00
9:56 PM,79.9,68.0,67,29.83,10.0,SW,5.8,-,N/A,,Clear,230,2013-06-12 02:56:00
10:56 PM,77.0,68.0,74,29.84,10.0,SW,6.9,-,N/A,,Clear,230,2013-06-12 03:56:00
11:56 PM,77.0,68.0,74,29.84,10.0,SW,9.2,-,N/A,,Clear,230,2013-06-12 04:56:00